Regional Weather Roundup
Issued by NWS

Home | Current Version | Previous Version | Graphics & Text | Print | Product List | Glossary On
Versions: 1 2 3 4 5 6 7 8 9 10 11 12 13 14 15 16 17 18 19 20 21 22 23 24 25 26 27 28 29 30 31 32 33 34 35 36 37 38 39 40 41 42 43 44 45 46 47 48 49 50
000
ASUS45 KTFX 191410
RWRMT
MONTANA REGIONAL WEATHER ROUNDUP
NATIONAL WEATHER SERVICE GREAT FALLS MT
700 AM MST THU JAN 19 2017

NOTE: "FAIR" INDICATES FEW OR NO CLOUDS BELOW 12000 FEET WITH NO
SIGNIFICANT WEATHER AND/OR OBSTRUCTIONS TO VISIBILITY.

MTZ001>007-043-191500-
WEST OF THE DIVIDE

CITY           SKY/WX    TMP DP  RH WIND       PRES   REMARKS
KALISPELL      CLOUDY    29  28  96 CALM      29.52S FOG
MISSOULA       CLOUDY    27  25  92 CALM      29.57R FOG
BUTTE          CLOUDY    22  17  81 SE6       29.56S WCI  14
MULLAN PASS    LGT SNOW  31  27  85 VRB6      29.49S FOG     WCI  25
ANACONDA         N/A     37  27  65 S14       29.54R WCI  29
DEER LODGE       N/A     37  27  65 SW8       29.55R WCI  31
EUREKA           N/A     37  34  87 S8        29.49R WCI  31
HAMILTON         N/A     39  28  65 S16       29.54S WCI  30
RONAN            N/A     32  30  92 CALM      29.60S
$$

MTZ008-052>055-191500-
SOUTHWEST MONTANA

CITY           SKY/WX    TMP DP  RH WIND       PRES   REMARKS
BOZEMAN        CLOUDY    20  15  81 CALM      29.58R
DILLON         CLOUDY    36  20  52 SW6       29.58F WCI  31
W YELLOWSTONE  LGT SNOW  18  18 100 CALM      29.69F
ENNIS          CLOUDY    32  25  74 S28G36    29.64F WCI  18
TWIN BRIDGES     N/A     31  19  61 SE9       29.64S WCI  23
$$

MTZ009-010-012-014-046-048-049-054-191500-
EAST SLOPES AND CENTRAL MONTANA

CITY           SKY/WX    TMP DP  RH WIND       PRES   REMARKS
CUT BANK       MOCLDY    42  31  64 VRB5      29.40R
GREAT FALLS    CLOUDY    39  26  59 S15       29.45S WCI  31
MALMSTROM AFB  CLOUDY    39  28  65 S10       29.46R
HELENA         CLOUDY    27  21  78 CALM      29.53S
AUGUSTA        MOCLDY    34  29  83 S3        29.43S
BOWMANS CRNR   MOCLDY    35  27  73 S16       29.44R WCI  25
CHOTEAU          N/A     39  30  70 S8        29.43F
CONRAD           N/A     33  31  93 S9        29.48F WCI  25
POWER            N/A     33  26  75 S14       29.42F WCI  24
RAYNESFORD     MOCLDY    44  24  46 SW12      29.48R
ULM            MOCLDY    38  28  67 MISG      29.46S
$$

MTZ011-013-016-021-045-047-050-051-191500-
NORTH CENTRAL MONTANA

CITY           SKY/WX    TMP DP  RH WIND       PRES   REMARKS
HAVRE          CLOUDY    31  29  92 E5        29.42S
LEWISTOWN      CLOUDY    36  26  67 CALM      29.47F
CHINOOK          N/A     30  28  93 CALM      29.43S
DENTON         MOCLDY    38  30  72 S14       29.41F WCI  30
FORT BENTON      N/A     45  27  49 MISG      29.43S
GEYSER         CLOUDY    42  28  56 W24G30    29.41F
GRASS RANGE    MOCLDY    42  28  56 SW14      29.43S
JUDITH GAP     MOCLDY    40  26  57 SW18      29.48F
ROY            MOCLDY    44  30  58 MISG      29.43S
STANFORD       CLOUDY    45  27  49 SW10      29.45S
WINIFRED       CLOUDY    44  28  53 SW15      29.43F
$$

MTZ017>020-022>027-061-062-191500-
NORTHEAST MONTANA

CITY           SKY/WX    TMP DP  RH WIND       PRES   REMARKS
GLASGOW        CLOUDY    22  19  89 S10       29.45F WCI  11
JORDAN           N/A     17  14  88 W3        29.46S
SIDNEY         CLOUDY    18  14  84 SW12      29.49S WCI   5
WOLF POINT     CLOUDY    11   6  81 CALM      29.48S
PLENTYWOOD       N/A     27  21  80 CALM      29.47R
POPLAR           N/A     23  19  86 CALM      29.49S
$$

MTZ028>42-056>058-191500-
SOUTHCENTRAL AND SOUTHEAST MONTANA

CITY           SKY/WX    TMP DP  RH WIND       PRES   REMARKS
BAKER          CLOUDY    17  12  80 CALM      29.51R
BILLINGS       CLOUDY    34  20  56 SW14      29.51S WCI  25
LIVINGSTON     CLOUDY    41  21  44 SW33G45   29.51F
MILES CITY     CLOUDY    19  14  81 SE5       29.51S
BIG TIMBER     PTCLDY    39  23  52 W20       29.53F WCI  30
FORSYTH          N/A     19  16  86 CALM      29.50S
HARLOWTON      MOCLDY    37  22  55 W14       29.49S WCI  29
LAUREL           N/A     31  17  56 SW5       29.54F
$$

REGIONAL REPORTS...DAKOTAS

CITY           SKY/WX    TMP DP  RH WIND       PRES   REMARKS
WILLISTON      CLOUDY    17  15  92 CALM      29.49S
MINOT          CLOUDY    23  19  85 S7        29.48S WCI  15
DICKINSON      CLOUDY    20  14  77 SW8       29.47S WCI  10
BEACH            N/A     23  18  80 CALM      29.52S
CROSBY           N/A     25  21  86 S17       29.47S WCI  11
TIOGA            N/A     19  19 100 W5        29.49R
WATFORD CITY     N/A     18  16  93 CALM      29.49S
BISMARCK       CLOUDY    11   8  88 E3        29.54S
GRAND FORKS    CLOUDY    23  19  85 S15       29.58S WCI  10
FARGO          CLOUDY    28  27  96 S10       29.61S FOG     WCI  19
BUFFALO SD       N/A     25  17  72 W8        29.44S WCI  16
RAPID CITY     CLOUDY    24  16  71 NW6       29.50F WCI  17
$$

REGIONAL REPORTS...WYOMING/IDAHO/WASHINGTON

CITY           SKY/WX    TMP DP  RH WIND       PRES   REMARKS
GILLETTE       CLOUDY    32  18  56 S6        29.52F WCI  26
SHERIDAN       CLOUDY    14  10  84 VRB5      29.51S
BUFFALO WY     CLOUDY    41  16  36 NW8       29.50F
CODY           CLOUDY    18  13  80 NE9       29.56F WCI   7
YELLOWSTONE LA   N/A     18  17  96 CALM      29.68F
IDAHO FALLS    LGT SNOW  24  24 100 N3        29.72F FOG
SALMON         CLOUDY    19  16  86 CALM      29.64F
BOISE          CLOUDY    36  33  89 SE10      29.63S WCI  28
SPOKANE        CLOUDY    36  32  85 S9        29.52S WCI  29
$$

REGIONAL REPORTS...ALBERTA

CITY           SKY/WX    TMP DP  RH WIND       PRES   REMARKS
EDMONTON       CLEAR     34  19  55 SW9       29.22F WCI  26
CALGARY        MOCLDY    36  27  69 W3        29.24S
LETHBRIDGE     MOCLDY    36  32  87 SW7       29.33S WCI  30
MEDICINE HAT   PTCLDY    36  30  80 W3        29.33S
WATERTON GATE    N/A     41  28  60 SW17G26     N/A
CARDSTON         N/A     39  28  65 SW8         N/A
MILK RIVER       N/A     37  34  87 W9          N/A  WCI  31
ONEFOUR          N/A     37  28  70 SW5         N/A
$$

REGIONAL REPORTS...SASKATCHEWAN

CITY           SKY/WX    TMP DP  RH WIND       PRES   REMARKS
SWIFT CURRENT  MOCLDY    39  32  75 SW15      29.36S WCI  31
REGINA         PTCLDY    25  21  86 SE7       29.41S WCI  17
SASKATOON      MOCLDY    27  25  93 SW6       29.34S WCI  20
CYPRESS HILLS    N/A     34  25  69 S7          N/A  WCI  28
ROCKGLEN         N/A     34  27  75 SW9         N/A  WCI  26
ASSINIBOIA       N/A     34  27  75 SW3         N/A
$$



USA.gov is the U.S. government's official web portal to all federal, state and local government web resources and services.